This is the latest recevied weather packets stored in our database for station/object DN9EL-10. If no packets are shown the sender has not sent any weather packets the latest 10 day(s).
| Time | Temp. | Humidity | Pressure | Rain* | Wind** | Luminosity | Snow |
|---|---|---|---|---|---|---|---|
| 1777756714 | 16.11° C | 37% | 962.9 hPa | - | - | - | - |
| 1777755814 | 16.67° C | 36% | 963.1 hPa | - | - | - | - |
| 1777754914 | 17.22° C | 36% | 963.1 hPa | - | - | - | - |
| 1777754014 | 17.78° C | 36% | 963.1 hPa | - | - | - | - |
| 1777753114 | 18.33° C | 36% | 963.2 hPa | - | - | - | - |
| 1777752214 | 18.89° C | 35% | 963.3 hPa | - | - | - | - |
| 1777751314 | 19.44° C | 35% | 963.3 hPa | - | - | - | - |
| 1777750414 | 20° C | 34% | 963.4 hPa | - | - | - | - |
| 1777749514 | 20.56° C | 33% | 963.3 hPa | - | - | - | - |
| 1777748614 | 21.11° C | 33% | 963.3 hPa | - | - | - | - |
| 1777747714 | 22.22° C | 32% | 963.3 hPa | - | - | - | - |
| 1777746813 | 22.78° C | 32% | 963.2 hPa | - | - | - | - |
| 1777745913 | 23.89° C | 29% | 963.2 hPa | - | - | - | - |
| 1777745013 | 24.44° C | 29% | 963.2 hPa | - | - | - | - |
| 1777744113 | 25° C | 28% | 963.3 hPa | - | - | - | - |
| 1777743218 | 25.56° C | 28% | 963.4 hPa | - | - | - | - |
| 1777742313 | 25.56° C | 28% | 963.5 hPa | - | - | - | - |
| 1777741413 | 26.11° C | 27% | 963.5 hPa | - | - | - | - |
| 1777740513 | 26.67° C | 27% | 963.7 hPa | - | - | - | - |
| 1777739613 | 27.22° C | 26% | 963.8 hPa | - | - | - | - |
| 1777738712 | 27.78° C | 27% | 964 hPa | - | - | - | - |
| 1777737812 | 27.78° C | 26% | 964.1 hPa | - | - | - | - |
| 1777736912 | 27.78° C | 25% | 964.3 hPa | - | - | - | - |
| 1777736012 | 28.33° C | 26% | 964.5 hPa | - | - | - | - |
| 1777735112 | 28.33° C | 25% | 964.7 hPa | - | - | - | - |
* Rain since midnight (hover to see other rain measurements)
** Current wind speed in m/s (hover to see current wind gust speed)